Weather History for KMWK - March, 2012

Change the Weather History Date:

Friday, March 9, 2012

  Actual Average (KINT) Record (KINT)
Temperature  
Mean Temperature 52 °F -  
Max Temperature 59 °F 55 °F 84 °F (1974)
Min Temperature 46 °F 37 °F 15 °F (1966)
Degree Days  
Heating Degree Days 12    
Growing Degree Days 2 (Base 50)    
Moisture  
Dew Point 33 °F    
Average Humidity 53    
Maximum Humidity 94    
Minimum Humidity 20    
Precipitation  
Precipitation 0.17 in - - ()
Sea Level Pressure  
Sea Level Pressure 30.18 in    
Wind  
Wind Speed 5 mph (NW)    
Max Wind Speed 16 mph    
Max Gust Speed 26 mph    
Visibility 9 miles    
Events Rain    
Averages and records for this station are not official NWS values.
T = Trace of Precipitation, MM = Missing Value Source: NWS Daily Summary

Daily Weather History Graph

Daily Weather History Graph

Search for Another Location

Airport or City:

Trip Planner

Search our weather history database for the weather conditions in past years. The results will help you decide how hot, cold, wet, or windy it might be!

Date:

Astronomy

Mar. 09, 2012 Rise Set
Actual Time 6:40 AM EST 6:24 PM EST
Civil Twilight 6:15 AM EST 6:50 PM EST
Nautical Twilight 5:45 AM EST 7:20 PM EST
Astronomical Twilight 5:15 AM EST 7:50 PM EST
Moon 8:17 PM EST (3/9) 7:02 AM EST (3/9)
Length of Visible Light 12h 35m
Length of Day
11h 43m
Full, 98% of the Moon is Illuminated
Mar 9
Full
Mar 14
Last Quarter
Mar 22
New
Mar 30
First Quarter
Apr 6
Full

Hourly Weather History & Observations

Time (EST) Temp. Windchill Dew Point Humidity Pressure Visibility Wind Dir Wind Speed Gust Speed Precip Events Conditions
12:15 AM 55.4 °F - 51.8 °F 88% 30.13 in 4.0 mi Calm Calm - 0.05 in Rain Heavy Rain
12:35 AM 55.4 °F - 53.6 °F 94% 30.12 in 7.0 mi Calm Calm - 0.07 in Rain Rain
12:55 AM 55.4 °F - 51.8 °F 88% 30.12 in 5.0 mi Calm Calm - 0.09 in Rain Rain
1:15 AM 55.4 °F - 51.8 °F 88% 30.12 in 4.0 mi Calm Calm - 0.02 in Rain Rain
1:35 AM 55.4 °F - 51.8 °F 88% 30.11 in 1.2 mi Calm Calm - 0.05 in Rain Rain
1:55 AM 55.4 °F - 51.8 °F 88% 30.10 in 2.5 mi Calm Calm - 0.07 in Rain Light Rain
2:15 AM 55.4 °F - 51.8 °F 88% 30.09 in 2.0 mi Calm Calm - N/A   Drizzle
2:35 AM 55.4 °F - 51.8 °F 88% 30.08 in 1.5 mi Calm Calm - N/A   Light Drizzle
2:55 AM 55.4 °F - 51.8 °F 88% 30.09 in 0.8 mi Calm Calm - 0.01 in   Overcast
3:15 AM 53.6 °F - 51.8 °F 94% 30.08 in 4.0 mi Calm Calm - N/A   Overcast
3:35 AM 53.6 °F - 51.8 °F 94% 30.07 in 10.0 mi Calm Calm - N/A   Overcast
3:55 AM 53.6 °F - 51.8 °F 94% 30.08 in 7.0 mi Calm Calm - N/A   Overcast
4:15 AM 53.6 °F - 51.8 °F 94% 30.10 in 10.0 mi NW 4.6 mph - N/A   Overcast
4:35 AM 53.6 °F - 50.0 °F 88% 30.11 in 10.0 mi NW 4.6 mph - N/A   Overcast
4:55 AM 53.6 °F - 50.0 °F 88% 30.11 in 10.0 mi NNW 3.5 mph - N/A   Overcast
5:15 AM 53.6 °F - 48.2 °F 82% 30.12 in 10.0 mi NNW 4.6 mph - N/A   Overcast
5:35 AM 53.6 °F - 46.4 °F 77% 30.13 in 10.0 mi NNW 3.5 mph - N/A   Overcast
5:55 AM 51.8 °F - 46.4 °F 82% 30.13 in 10.0 mi NNW 6.9 mph - N/A   Overcast
6:15 AM 51.8 °F - 44.6 °F 76% 30.13 in 10.0 mi NNW 5.8 mph - N/A   Scattered Clouds
6:35 AM 51.8 °F - 42.8 °F 71% 30.14 in 10.0 mi NNW 5.8 mph - N/A   Clear
6:55 AM 50.0 °F - 42.8 °F 76% 30.14 in 10.0 mi NNW 4.6 mph - N/A   Clear
7:15 AM 50.0 °F - 41.0 °F 71% 30.15 in 10.0 mi NW 8.1 mph - N/A   Clear
7:35 AM 50.0 °F - 41.0 °F 71% 30.17 in 10.0 mi NE 3.5 mph - N/A   Clear
7:55 AM 50.0 °F - 41.0 °F 71% 30.17 in 10.0 mi Calm Calm - N/A   Clear
8:15 AM 50.0 °F - 37.4 °F 62% 30.18 in 10.0 mi NW 3.5 mph 17.3 mph N/A   Clear
8:35 AM 48.2 °F - 35.6 °F 62% 30.19 in 10.0 mi NW 10.4 mph 18.4 mph N/A   Clear
8:55 AM 46.4 °F 40.1 °F 33.8 °F 62% 30.20 in 10.0 mi NW 15.0 mph 20.7 mph N/A   Clear
9:15 AM 46.4 °F 41.5 °F 33.8 °F 62% 30.20 in 10.0 mi NW 10.4 mph 21.9 mph N/A   Clear
9:35 AM 48.2 °F - 33.8 °F 58% 30.20 in 10.0 mi NW 10.4 mph - N/A   Clear
9:55 AM 50.0 °F - 32.0 °F 50% 30.21 in 10.0 mi NNW 10.4 mph 17.3 mph N/A   Clear
10:15 AM 50.0 °F - 30.2 °F 47% 30.22 in 10.0 mi NW 9.2 mph 16.1 mph N/A   Clear
10:35 AM 50.0 °F - 32.0 °F 50% 30.22 in 10.0 mi NNW 11.5 mph 18.4 mph N/A   Clear
10:55 AM 50.0 °F - 30.2 °F 47% 30.22 in 10.0 mi NW 15.0 mph 20.7 mph N/A   Clear
11:15 AM 50.0 °F - 32.0 °F 50% 30.23 in 10.0 mi NW 12.7 mph 26.5 mph N/A   Clear
11:35 AM 51.8 °F - 30.2 °F 44% 30.24 in 10.0 mi WNW 10.4 mph 23.0 mph N/A   Clear
11:55 AM 51.8 °F - 28.4 °F 41% 30.24 in 10.0 mi NNW 8.1 mph 17.3 mph N/A   Clear
12:15 PM 53.6 °F - 26.6 °F 35% 30.23 in 10.0 mi North 5.8 mph 16.1 mph N/A   Clear
12:35 PM 53.6 °F - 26.6 °F 35% 30.22 in 10.0 mi WNW 11.5 mph - N/A   Clear
12:55 PM 53.6 °F - 21.2 °F 28% 30.22 in 10.0 mi NW 12.7 mph 21.9 mph N/A   Clear
1:15 PM 53.6 °F - 21.2 °F 28% 30.21 in 10.0 mi NNW 12.7 mph 18.4 mph N/A   Clear
1:35 PM 53.6 °F - 19.4 °F 26% 30.20 in 10.0 mi WNW 12.7 mph 17.3 mph N/A   Clear
1:55 PM 55.4 °F - 19.4 °F 25% 30.19 in 10.0 mi NW 12.7 mph 20.7 mph N/A   Clear
2:15 PM 55.4 °F - 17.6 °F 23% 30.18 in 10.0 mi WNW 11.5 mph 17.3 mph N/A   Clear
2:35 PM 57.2 °F - 17.6 °F 21% 30.18 in 10.0 mi WNW 9.2 mph - N/A   Clear
2:55 PM 57.2 °F - 17.6 °F 21% 30.19 in 10.0 mi WNW 12.7 mph 19.6 mph N/A   Clear
3:15 PM 57.2 °F - 17.6 °F 21% 30.18 in 10.0 mi NW 12.7 mph 17.3 mph N/A   Clear
3:55 PM 57.2 °F - 17.6 °F 21% 30.18 in 10.0 mi WNW 10.4 mph 17.3 mph N/A   Clear
4:15 PM 59.0 °F - 19.4 °F 22% 30.18 in 10.0 mi West 12.7 mph 18.4 mph N/A   Clear
4:35 PM 59.0 °F - 17.6 °F 20% 30.18 in 10.0 mi NW 12.7 mph - N/A   Clear
4:55 PM 57.2 °F - 17.6 °F 21% 30.18 in 10.0 mi WNW 9.2 mph 19.6 mph N/A   Clear
5:15 PM 55.4 °F - 19.4 °F 25% 30.19 in 10.0 mi NW 16.1 mph 21.9 mph N/A   Clear
5:35 PM 55.4 °F - 19.4 °F 25% 30.20 in 10.0 mi NW 11.5 mph 18.4 mph N/A   Clear
5:55 PM 53.6 °F - 19.4 °F 26% 30.20 in 10.0 mi NW 10.4 mph 18.4 mph N/A   Clear
6:15 PM 53.6 °F - 19.4 °F 26% 30.20 in 10.0 mi NW 9.2 mph 17.3 mph N/A   Clear
6:35 PM 53.6 °F - 19.4 °F 26% 30.21 in 10.0 mi NW 8.1 mph - N/A   Clear
6:55 PM 51.8 °F - 19.4 °F 28% 30.22 in 10.0 mi NW 5.8 mph - N/A   Clear
7:15 PM 50.0 °F - 21.2 °F 32% 30.23 in 10.0 mi NW 6.9 mph - N/A   Clear
7:35 PM 51.8 °F - 21.2 °F 30% 30.24 in 10.0 mi NW 4.6 mph - N/A   Clear
7:55 PM 50.0 °F - 21.2 °F 32% 30.25 in 10.0 mi WNW 5.8 mph - N/A   Clear
8:15 PM 50.0 °F - 21.2 °F 32% 30.26 in 10.0 mi WNW 3.5 mph - N/A   Clear
8:35 PM 50.0 °F - 21.2 °F 32% 30.27 in 10.0 mi NW 8.1 mph - N/A   Clear
8:55 PM 50.0 °F - 21.2 °F 32% 30.28 in 10.0 mi NNW 5.8 mph - N/A   Clear
9:15 PM 50.0 °F - 21.2 °F 32% 30.29 in 10.0 mi Calm Calm - N/A   Clear
9:35 PM 48.2 °F - 21.2 °F 34% 30.29 in 10.0 mi NNW 4.6 mph - N/A   Clear
9:55 PM 48.2 °F - 21.2 °F 34% 30.30 in 10.0 mi Calm Calm - N/A   Clear
10:15 PM 48.2 °F - 21.2 °F 34% 30.31 in 10.0 mi NNW 3.5 mph - N/A   Clear
10:35 PM 46.4 °F 44.3 °F 21.2 °F 37% 30.31 in 10.0 mi North 4.6 mph - N/A   Clear
10:55 PM 46.4 °F 43.5 °F 21.2 °F 37% 30.32 in 10.0 mi NNW 5.8 mph - N/A   Clear
11:15 PM 46.4 °F 44.3 °F 21.2 °F 37% 30.32 in 10.0 mi NNW 4.6 mph - N/A   Clear
11:35 PM 44.6 °F 42.2 °F 21.2 °F 39% 30.32 in 10.0 mi North 4.6 mph - N/A   Clear
11:55 PM 44.6 °F 40.7 °F 21.2 °F 39% 30.33 in 10.0 mi North 6.9 mph - N/A   Clear